Weather History for PAWI - October, 2012

Change the Weather History Date:

Sunday, October 28, 2012

  Actual Average (PABR) Record (PABR)
Temperature  
Mean Temperature 28 °F 10 °F  
Max Temperature 30 °F 15 °F 34 °F (1996)
Min Temperature 26 °F - -30 °F (1970)
Degree Days  
Heating Degree Days 37 55  
Month to date heating degree days 1313  
Since 1 July heating degree days 3853  
Cooling Degree Days 0    
Month to date cooling degree days  
Year to date cooling degree days  
Moisture  
Dew Point 20 °F    
Average Humidity 72    
Maximum Humidity 81    
Minimum Humidity 59    
Precipitation  
Precipitation 0.01 in 0.01 in 0.12 in (1968)
Month to date precipitation 0.38  
Year to date precipitation 4.15  
Snow  
Snow 0.00 in 0.30 in 2.20 in (1999)
Month to date snowfall 8.2  
Since 1 July snowfall 13.7  
Since 1 September snowfall 12.6  
Snow Depth -    
Sea Level Pressure  
Sea Level Pressure 30.09 in    
Wind  
Wind Speed 20 mph (West)    
Max Wind Speed 25 mph    
Max Gust Speed 37 mph    
Visibility 7 miles    
Events Snow    
T = Trace of Precipitation, MM = Missing Value Source: NWS Daily Summary

Daily Weather History Graph

Daily Weather History Graph

Search for Another Location

Airport or City:

Trip Planner

Search our weather history database for the weather conditions in past years. The results will help you decide how hot, cold, wet, or windy it might be!

Date:

Astronomy

Oct. 28, 2012 Rise Set
Actual Time 11:01 AM AKDT 5:44 PM AKDT
Civil Twilight 9:46 AM AKDT 6:58 PM AKDT
Nautical Twilight 8:31 AM AKDT 8:14 PM AKDT
Astronomical Twilight 7:18 AM AKDT 9:26 PM AKDT
Moon 5:06 PM AKDT (10/28) 9:58 AM AKDT (10/28)
Length of Visible Light 9h 11m
Length of Day
6h 43m
Waxing Gibbous, 99% of the Moon is Illuminated
Oct 28
Waxing Gibbous
Oct 29
Full
Nov 6
Last Quarter
Nov 13
New
Nov 20
First Quarter

Hourly Weather History & Observations

Time (AKDT) Temp. Windchill Dew Point Humidity Pressure Visibility Wind Dir Wind Speed Gust Speed Precip Events Conditions
12:53 AM 30.9 °F 18.4 °F 21.9 °F 69% 30.21 in 10.0 mi WNW 20.7 mph 32.2 mph N/A   Overcast
1:53 AM 30.0 °F 17.5 °F 21.9 °F 72% 30.21 in 10.0 mi West 19.6 mph 31.1 mph N/A   Overcast
2:53 AM 28.9 °F 15.8 °F 21.0 °F 72% 30.21 in 10.0 mi WNW 20.7 mph 32.2 mph N/A   Overcast
3:53 AM 28.9 °F 15.8 °F 19.9 °F 69% 30.22 in 10.0 mi WNW 20.7 mph 29.9 mph N/A   Overcast
4:53 AM 28.9 °F 16.5 °F 21.0 °F 72% 30.22 in 10.0 mi WNW 18.4 mph 25.3 mph N/A   Overcast
5:53 AM 28.0 °F 15.3 °F 19.9 °F 72% 30.22 in 10.0 mi West 18.4 mph 27.6 mph N/A   Overcast
6:53 AM 28.9 °F 16.9 °F 19.9 °F 69% 30.21 in 10.0 mi WNW 17.3 mph 21.9 mph N/A   Overcast
7:53 AM 28.9 °F 17.3 °F 19.9 °F 69% 30.20 in 10.0 mi WNW 16.1 mph 25.3 mph N/A   Overcast
8:53 AM 28.9 °F 18.6 °F 21.0 °F 72% 30.19 in 10.0 mi WNW 12.7 mph 20.7 mph N/A   Overcast
9:53 AM 30.0 °F 18.3 °F 21.0 °F 69% 30.17 in 10.0 mi West 17.3 mph 24.2 mph N/A   Overcast
10:53 AM 30.0 °F 18.7 °F 21.0 °F 69% 30.16 in 10.0 mi West 16.1 mph - N/A   Overcast
11:53 AM 30.0 °F 16.9 °F 21.9 °F 72% 30.15 in 10.0 mi West 21.9 mph 28.8 mph 0.00 in   Overcast
12:53 PM 30.0 °F 17.9 °F 19.9 °F 66% 30.15 in 10.0 mi West 18.4 mph 26.5 mph 0.00 in   Overcast
1:53 PM 30.0 °F 18.7 °F 21.9 °F 72% 30.14 in 10.0 mi West 16.1 mph 24.2 mph N/A   Overcast
2:53 PM 28.9 °F 15.8 °F 21.0 °F 72% 30.14 in 10.0 mi West 20.7 mph 25.3 mph N/A   Overcast
3:48 PM 28.4 °F 15.8 °F 21.2 °F 74% 30.12 in 10.0 mi West 18.4 mph 26.5 mph N/A   Overcast
3:53 PM 28.9 °F 16.5 °F 21.0 °F 72% 30.12 in 10.0 mi West 18.4 mph 26.5 mph N/A   Overcast
4:53 PM 28.9 °F 15.8 °F 19.9 °F 69% 30.10 in 10.0 mi West 20.7 mph 28.8 mph N/A   Overcast
5:53 PM 28.0 °F 16.1 °F 21.0 °F 75% 30.09 in 9.0 mi West 16.1 mph 25.3 mph 0.00 in Snow Light Snow
6:40 PM 28.4 °F 14.7 °F 19.4 °F 69% 30.06 in 9.0 mi West 21.9 mph 31.1 mph 0.00 in Snow Light Snow
6:53 PM 28.0 °F 13.6 °F 19.9 °F 72% 30.06 in 10.0 mi West 24.2 mph 32.2 mph 0.00 in   Overcast
7:53 PM 28.0 °F 14.9 °F 16.0 °F 61% 30.05 in 7.0 mi West 19.6 mph 33.4 mph 0.00 in Snow Light Snow
8:22 PM 26.6 °F 11.7 °F 19.4 °F 74% 30.04 in 2.0 mi West 24.2 mph 31.1 mph 0.00 in Snow Light Snow
8:29 PM 26.6 °F 13.1 °F 21.2 °F 80% 30.04 in 1.0 mi West 19.6 mph 31.1 mph 0.00 in Snow Light Snow
8:34 PM 26.6 °F 13.1 °F 21.2 °F 80% 30.04 in 4.0 mi West 19.6 mph 27.6 mph 0.00 in Snow Light Snow
8:42 PM 26.6 °F 13.4 °F 19.4 °F 74% 30.04 in 1.8 mi West 18.4 mph 29.9 mph 0.00 in Snow Light Snow
8:51 PM 28.4 °F 14.1 °F 21.2 °F 74% 30.03 in 3.0 mi WSW 24.2 mph 29.9 mph 0.00 in Snow Light Snow
8:53 PM 28.0 °F 14.3 °F 19.0 °F 69% 30.04 in 6.0 mi West 21.9 mph 29.9 mph 0.00 in Snow Light Snow
9:06 PM 28.4 °F 15.1 °F 15.8 °F 59% 30.03 in 10.0 mi West 20.7 mph 32.2 mph N/A   Overcast
9:15 PM 28.4 °F 14.1 °F 17.6 °F 64% 30.02 in 1.8 mi West 24.2 mph 36.8 mph 0.00 in Snow Light Snow
9:22 PM 26.6 °F 13.1 °F 21.2 °F 80% 30.03 in 0.5 mi West 19.6 mph 36.8 mph 0.00 in Snow Snow
9:40 PM 26.6 °F 11.7 °F 21.2 °F 80% 30.02 in 2.5 mi West 24.2 mph 34.5 mph 0.00 in Snow Light Snow
9:49 PM 26.6 °F 11.4 °F 19.4 °F 74% 30.03 in 1.8 mi WSW 25.3 mph 34.5 mph 0.00 in Snow Light Snow
9:53 PM 26.1 °F 11.0 °F 21.0 °F 81% 30.03 in 1.2 mi West 24.2 mph 34.5 mph 0.00 in Snow Light Snow
10:06 PM 26.6 °F 15.7 °F 21.2 °F 80% 30.02 in 3.0 mi West 12.7 mph 26.5 mph 0.00 in Snow Light Snow
10:29 PM 26.6 °F 11.7 °F 19.4 °F 74% 30.00 in 2.5 mi West 24.2 mph 36.8 mph 0.00 in Snow Light Snow
10:32 PM 26.6 °F 11.4 °F 21.2 °F 80% 30.00 in 3.0 mi West 25.3 mph 36.8 mph 0.00 in Snow Light Snow
10:53 PM 27.0 °F 12.5 °F 18.0 °F 69% 30.00 in 10.0 mi West 23.0 mph 28.8 mph 0.00 in   Overcast
11:19 PM 26.6 °F 12.7 °F 19.4 °F 74% 29.99 in 2.5 mi West 20.7 mph 29.9 mph 0.00 in Snow Light Snow
11:26 PM 26.6 °F 14.3 °F 21.2 °F 80% 29.99 in 0.8 mi West 16.1 mph 29.9 mph 0.01 in Snow Light Snow
11:40 PM 26.6 °F 13.4 °F 19.4 °F 74% 29.98 in 3.0 mi West 18.4 mph 27.6 mph 0.01 in Snow Light Snow
11:53 PM 27.0 °F 13.9 °F 16.0 °F 63% 29.99 in 7.0 mi West 18.4 mph 26.5 mph 0.01 in Snow Light Snow